Albany, NY

11:56 PM EST on December 14, 2017 (GMT -0500)
Albany International

Weather History for KALB - May, 2012

Change the Weather History Date:

Monday, May 28, 2012

  Actual Average Record
Temperature  
Mean Temperature 73 °F 62 °F  
Max Temperature 85 °F 73 °F 93 °F (2016)
Min Temperature 60 °F 51 °F 33 °F (1994)
Degree Days  
Heating Degree Days 0 5  
Month to date heating degree days 121 222  
Since 1 July heating degree days 5291 6615  
Cooling Degree Days 8 2  
Month to date cooling degree days 50 18  
Year to date cooling degree days 58 22  
Growing Degree Days 22 (Base 50)    
Moisture  
Dew Point 58 °F    
Average Humidity 62    
Maximum Humidity 74    
Minimum Humidity 49    
Precipitation  
Precipitation T in 0.12 in 1.13 in (1882)
Month to date precipitation 4.63 3.23  
Year to date precipitation 12.40 14.40  
Snow  
Snow 0.00 in 0.00 in T in (1902)
Month to date snowfall 0.0 0.1  
Since 1 July snowfall 23.3 60.3  
Snow Depth 0.00 in    
Sea Level Pressure  
Sea Level Pressure 29.93 in    
Wind  
Wind Speed 6 mph (SE)    
Max Wind Speed 17 mph    
Max Gust Speed 23 mph    
Visibility 10 miles    
Events      
T = Trace of Precipitation, MM = Missing Value Source: NWS Daily Summary

Daily Weather History Graph

Daily Weather History Graph

Search for Another Location

Airport or City:

Trip Planner

Search our weather history database for the weather conditions in past years. The results will help you decide how hot, cold, wet, or windy it might be!

Date:

Astronomy

May. 28, 2012 Rise Set
Actual Time 5:21 AM EDT 8:23 PM EDT
Civil Twilight 4:47 AM EDT 8:57 PM EDT
Nautical Twilight 4:04 AM EDT 9:41 PM EDT
Astronomical Twilight 3:13 AM EDT 10:32 PM EDT
Moon 12:36 PM EDT (5/28) 12:53 AM EDT (5/28)
Length of Visible Light 16h 10m
Length of Day
15h 02m
Waxing Crescent, 48% of the Moon is Illuminated
May 28
Waxing Crescent
May 28
First Quarter
Jun 4
Full
Jun 11
Last Quarter
Jun 19
New

Hourly Weather History & Observations

Time (EDT) Temp. Heat Index Dew Point Humidity Pressure Visibility Wind Dir Wind Speed Gust Speed Precip Events Conditions
12:51 AM 66.0 °F - 51.1 °F 59% 29.97 in 10.0 mi NNE 4.6 mph - N/A   Mostly Cloudy
1:51 AM 64.9 °F - 46.0 °F 50% 29.96 in 10.0 mi North 4.6 mph - N/A   Scattered Clouds
2:51 AM 64.0 °F - 46.0 °F 52% 29.97 in 10.0 mi North 4.6 mph - N/A   Mostly Cloudy
3:51 AM 62.1 °F - 45.0 °F 53% 29.98 in 10.0 mi NNW 5.8 mph - N/A   Mostly Cloudy
4:51 AM 61.0 °F - 46.9 °F 60% 29.98 in 10.0 mi Calm Calm - N/A   Mostly Cloudy
5:51 AM 61.0 °F - 46.9 °F 60% 29.99 in 10.0 mi Calm Calm - N/A   Partly Cloudy
6:51 AM 63.0 °F - 48.9 °F 60% 30.01 in 10.0 mi NNW 3.5 mph - N/A   Partly Cloudy
7:51 AM 64.9 °F - 48.9 °F 56% 30.01 in 10.0 mi North 4.6 mph - N/A   Partly Cloudy
8:51 AM 68.0 °F - 51.1 °F 55% 30.02 in 10.0 mi NNW 6.9 mph - N/A   Clear
9:51 AM 71.1 °F - 51.1 °F 49% 30.00 in 10.0 mi ENE 3.5 mph - N/A   Partly Cloudy
10:51 AM 73.9 °F - 54.0 °F 50% 29.99 in 10.0 mi Calm Calm - N/A   Scattered Clouds
11:51 AM 77.0 °F - 57.0 °F 50% 29.99 in 10.0 mi NNE 3.5 mph - N/A   Mostly Cloudy
12:51 PM 79.0 °F - 59.0 °F 50% 29.97 in 10.0 mi Calm Calm - N/A   Mostly Cloudy
1:51 PM 80.1 °F 80.9 °F 60.1 °F 50% 29.93 in 10.0 mi Calm Calm - 0.00 in   Mostly Cloudy
2:51 PM 82.9 °F 83.7 °F 62.1 °F 49% 29.90 in 10.0 mi Calm Calm - N/A   Scattered Clouds
3:51 PM 84.0 °F 85.4 °F 64.0 °F 51% 29.89 in 10.0 mi SSW 8.1 mph - N/A   Partly Cloudy
4:51 PM 84.9 °F 87.1 °F 66.0 °F 53% 29.87 in 10.0 mi SSE 9.2 mph - N/A   Partly Cloudy
5:51 PM 84.9 °F 87.6 °F 66.9 °F 55% 29.86 in 10.0 mi South 10.4 mph - N/A   Scattered Clouds
6:51 PM 84.0 °F 87.0 °F 68.0 °F 58% 29.85 in 10.0 mi South 9.2 mph - N/A   Scattered Clouds
7:51 PM 82.9 °F 87.5 °F 71.1 °F 67% 29.86 in 9.0 mi South 5.8 mph - N/A   Scattered Clouds
8:51 PM 82.0 °F 86.3 °F 71.1 °F 69% 29.85 in 10.0 mi South 5.8 mph - N/A   Scattered Clouds
9:51 PM 81.0 °F 84.9 °F 71.1 °F 72% 29.85 in 9.0 mi South 8.1 mph - N/A   Scattered Clouds
10:51 PM 80.1 °F 83.6 °F 71.1 °F 74% 29.82 in 9.0 mi South 16.1 mph 20.7 mph N/A   Mostly Cloudy
11:51 PM 78.1 °F - 70.0 °F 76% 29.84 in 9.0 mi South 11.5 mph - N/A   Mostly Cloudy